Weather History for KALN - January, 2013

Change the Weather History Date:

Monday, January 21, 2013

  Actual Average Record
Temperature  
Mean Temperature 21 °F -  
Max Temperature 26 °F 35 °F 55 °F (1999)
Min Temperature 16 °F 21 °F -3 °F (2011)
Degree Days  
Heating Degree Days 44    
Moisture  
Dew Point 5 °F    
Average Humidity 49    
Maximum Humidity 86    
Minimum Humidity 26    
Precipitation  
Precipitation 0.00 in - - ()
Sea Level Pressure  
Sea Level Pressure 30.34 in    
Wind  
Wind Speed 10 mph (NW)    
Max Wind Speed 21 mph    
Max Gust Speed 32 mph    
Visibility 10 miles    
Events      
Averages and records for this station are not official NWS values.
T = Trace of Precipitation, MM = Missing Value Source: NWS Daily Summary

Daily Weather History Graph

Daily Weather History Graph

Search for Another Location

Airport or City:

Trip Planner

Search our weather history database for the weather conditions in past years. The results will help you decide how hot, cold, wet, or windy it might be!

Date:

Astronomy

Jan. 21, 2013 Rise Set
Actual Time 7:14 AM CST 5:09 PM CST
Civil Twilight 6:45 AM CST 5:38 PM CST
Nautical Twilight 6:12 AM CST 6:10 PM CST
Astronomical Twilight 5:41 AM CST 6:42 PM CST
Moon 12:49 PM CST (1/21) 2:42 AM CST (1/21)
Length of Visible Light 10h 52m
Length of Day
9h 55m
Waxing Gibbous, 75% of the Moon is Illuminated
Jan 21
Waxing Gibbous
Jan 26
Full
Feb 3
Last Quarter
Feb 10
New
Feb 17
First Quarter

Hourly Weather History & Observations

Time (CST) Temp. Windchill Dew Point Humidity Pressure Visibility Wind Dir Wind Speed Gust Speed Precip Events Conditions
12:15 AM 26.4 °F 18.0 °F 11.3 °F 53% 30.30 in 10.0 mi NW 8.1 mph - N/A   Scattered Clouds
12:35 AM 26.2 °F 19.6 °F 11.8 °F 55% 30.30 in 10.0 mi NW 5.8 mph - N/A   Mostly Cloudy
12:55 AM 25.7 °F 18.0 °F 11.7 °F 55% 30.30 in 10.0 mi WNW 6.9 mph - N/A   Scattered Clouds
1:15 AM 25.5 °F 15.5 °F 12.0 °F 57% 30.30 in 10.0 mi WNW 10.4 mph - N/A   Scattered Clouds
1:35 AM 25.5 °F 15.5 °F 13.1 °F 59% 30.30 in 10.0 mi WNW 10.4 mph - N/A   Clear
1:55 AM 25.3 °F 16.0 °F 12.9 °F 59% 30.31 in 10.0 mi WNW 9.2 mph - N/A   Clear
2:15 AM 24.8 °F 17.9 °F 13.1 °F 61% 30.31 in 10.0 mi NW 5.8 mph - N/A   Scattered Clouds
2:35 AM 24.8 °F 17.9 °F 13.6 °F 63% 30.31 in 10.0 mi WNW 5.8 mph - N/A   Clear
3:15 AM 23.7 °F 12.6 °F 13.8 °F 66% 30.30 in 10.0 mi WNW 11.5 mph - N/A   Clear
3:55 AM 23.4 °F 13.5 °F 11.7 °F 61% 30.32 in 10.0 mi WNW 9.2 mph 19.6 mph N/A   Overcast
4:15 AM 23.0 °F 11.1 °F 12.2 °F 63% 30.32 in 10.0 mi WNW 12.7 mph 19.6 mph N/A   Scattered Clouds
4:35 AM 22.5 °F 12.4 °F 10.0 °F 59% 30.32 in 10.0 mi WNW 9.2 mph - N/A   Clear
4:55 AM 22.1 °F 11.3 °F 10.9 °F 62% 30.32 in 10.0 mi WNW 10.4 mph - N/A   Clear
5:15 AM 22.1 °F 12.0 °F 12.2 °F 66% 30.32 in 10.0 mi West 9.2 mph - N/A   Clear
5:35 AM 22.6 °F 9.2 °F 10.9 °F 61% 30.31 in 10.0 mi WNW 16.1 mph 20.7 mph N/A   Clear
6:50 AM 23.0 °F 9.2 °F 6.8 °F 50% 30.32 in 10.0 mi WNW 17.3 mph 25.3 mph N/A   Mostly Cloudy
7:50 AM 21.2 °F 6.8 °F 3.2 °F 46% 30.32 in 10.0 mi NW 17.3 mph 25.3 mph N/A   Scattered Clouds
8:50 AM 23.0 °F 10.6 °F 19.4 °F 86% 30.33 in 10.0 mi NW 13.8 mph 19.6 mph N/A   Scattered Clouds
9:50 AM 23.0 °F 9.6 °F 1.4 °F 39% 30.34 in 10.0 mi NW 16.1 mph 21.9 mph N/A   Scattered Clouds
10:50 AM 24.8 °F 11.1 °F -2.2 °F 31% 30.35 in 10.0 mi NW 18.4 mph 27.6 mph N/A   Scattered Clouds
11:50 AM 26.6 °F 13.8 °F -0.4 °F 31% 30.33 in 10.0 mi WNW 17.3 mph 25.3 mph N/A   Partly Cloudy
12:50 PM 24.8 °F 10.3 °F -5.8 °F 26% 30.34 in 10.0 mi NW 20.7 mph 32.2 mph N/A   Partly Cloudy
2:50 PM 23.0 °F 8.7 °F -5.8 °F 28% 30.34 in 10.0 mi NW 18.4 mph 29.9 mph N/A   Mostly Cloudy
3:50 PM 21.2 °F 6.8 °F -4.0 °F 33% 30.36 in 10.0 mi NW 17.3 mph - N/A   Overcast
4:50 PM 21.2 °F 7.3 °F -5.8 °F 30% 30.36 in 10.0 mi WNW 16.1 mph - N/A   Overcast
9:15 PM 18.5 °F 11.7 °F -5.8 °F 34% 30.39 in 10.0 mi NW 4.6 mph - N/A   Clear
9:35 PM 18.3 °F 10.2 °F -4.7 °F 36% 30.39 in 10.0 mi NW 5.8 mph - N/A   Clear
9:55 PM 18.0 °F 11.1 °F -3.8 °F 38% 30.39 in 10.0 mi NNW 4.6 mph - N/A   Clear
10:15 PM 17.6 °F 9.3 °F -3.8 °F 39% 30.39 in 10.0 mi NW 5.8 mph - N/A   Scattered Clouds
10:35 PM 17.6 °F 9.3 °F -3.3 °F 40% 30.39 in 10.0 mi NW 5.8 mph - N/A   Mostly Cloudy
10:55 PM 17.6 °F 8.2 °F -2.6 °F 41% 30.39 in 10.0 mi WNW 6.9 mph - N/A   Mostly Cloudy
11:15 PM 17.4 °F 9.1 °F -2.0 °F 42% 30.40 in 10.0 mi WNW 5.8 mph - N/A   Mostly Cloudy
11:35 PM 16.7 °F 8.3 °F -0.8 °F 46% 30.39 in 10.0 mi WNW 5.8 mph - N/A   Scattered Clouds
11:55 PM 16.5 °F 9.4 °F -0.4 °F 47% 30.39 in 10.0 mi WNW 4.6 mph - N/A   Scattered Clouds